Tracking 30685 objects as of 17-Jun-2025
HD Live streaming from Space Station
objects crossing your sky now

NOAA 16 DEB

Track NOAA 16 DEB now!
10-day predictions


NORAD ID: 41419
Int'l Code: 2000-055KY
Perigee: 716.4 km
Apogee: 740.7 km
Inclination: 98.9 °
Period: 99.2 minutes
Semi major axis: 7099 km
RCS: Unknown
Launch date: September 21, 2000
Source: United States (US)
Launch site: AIR FORCE WESTERN TEST RANGE (AFWTR)

Note: This is SATELLITE DEBRIS
Your satellite tracking list
Your tracking list is empty




NASA's NSSDC Master Catalog

Two Line Element Set (TLE):
1 41419U 00055KY  25166.75097378  .00011870  00000-0  29843-2 0  9990
2 41419  98.8549 276.7712 0017129 113.5854 246.7140 14.51298999481311
Source of the keplerian elements: AFSPC